Starlink 31136

operational
NORAD ID: 58772 Int'l Des: 2024-011 Owner: SPXS Country: US Constellation: starlink
LEOCIRCULAR

About Starlink 31136

Description loading...

Live Position

Loading 3D Globe...

Upcoming Passes

Altitude History

Altitude vs Time

uPlot chart will show altitude changes over time

Two-Line Element Set

1 58772U 24011H 25303.86585502 .00001743 00000-0 70983-4 0 9995
2 58772 53.1606 256.6959 0001352 88.5925 271.5230 15.30186727100384
Epoch: Oct 30, 2025 • Age: 11 hours

Current Status

Altitude 477.4 km
Velocity 7.63 km/s
Sub-Earth Point 36.19°N, 128.3°E
Launch Date Jan 14, 2024
Age 1.7 years
Type internet

Technical Details

Classification Payload
Mass 730.00 kg
Dry Mass 700.00 kg
Total Mass 730.00 kg
Length 0.30 m
Diameter 4.10 m
Span 29.00 m
Shape Box + pan
Manufacturer SPXS
Bus Type Starlink V2M
Phase Status In Orbit
Owner/State SPXS/US

Large Constellations

Loading constellations...